Wetterdaten: Mrz 2011
Datum Temp Feuchte Luftdruck Regen Wind Richtung Sonnenschein UV Solar Windben
01.03.2011 2,2 C 82 % 1034,9 hPa 0,2 l/m 7,6 km/h N-NO 8,67 h 1,1 UV-I 252 W/m 20,1 km/h
02.03.2011 0,1 C 80 % 1034,6 hPa 0,0 l/m 4,2 km/h NO 8,25 h 1,3 UV-I 281 W/m 12,5 km/h
03.03.2011 0,6 C 68 % 1032,4 hPa 0,0 l/m 3,5 km/h N-NO 8,67 h 1,3 UV-I 292 W/m 10,8 km/h
04.03.2011 1,8 C 71 % 1030,5 hPa 0,0 l/m 0,4 km/h N-NO 8,42 h 1,3 UV-I 281 W/m 2,4 km/h
05.03.2011 -2,0 C 96 % 1027,2 hPa 0,0 l/m 2,3 km/h N-NW 0,00 h 0,9 UV-I 90 W/m 8,5 km/h
06.03.2011 -0,7 C 76 % 1030,9 hPa 0,0 l/m 0,8 km/h N-NW 7,33 h 1,7 UV-I 308 W/m 5,6 km/h
07.03.2011 0,9 C 47 % 1033,6 hPa 0,0 l/m 12,0 km/h SO 8,83 h 1,7 UV-I 327 W/m 21,3 km/h
08.03.2011 2,2 C 59 % 1022,5 hPa 0,0 l/m 9,9 km/h S-SO 8,83 h 1,6 UV-I 323 W/m 15,3 km/h
09.03.2011 6,1 C 83 % 1015,0 hPa 0,4 l/m 10,4 km/h S 0,92 h 1,2 UV-I 124 W/m 24,1 km/h
10.03.2011 5,6 C 85 % 1011,3 hPa 0,6 l/m 18,0 km/h S-SW 2,75 h 1,1 UV-I 141 W/m 33,4 km/h
11.03.2011 4,1 C 86 % 1015,2 hPa 0,4 l/m 5,6 km/h S-SW 2,67 h 1,2 UV-I 159 W/m 11,3 km/h
12.03.2011 7,4 C 74 % 1007,9 hPa 0,0 l/m 9,8 km/h S 7,42 h 1,5 UV-I 267 W/m 14,5 km/h
13.03.2011 8,3 C 83 % 1006,5 hPa 0,0 l/m 3,8 km/h S 0,58 h 1,1 UV-I 120 W/m 8,4 km/h
14.03.2011 7,6 C 93 % 1016,5 hPa 0,8 l/m 1,0 km/h N-NW 0,33 h 1,0 UV-I 113 W/m 2,8 km/h
15.03.2011 9,0 C 87 % 1017,6 hPa 0,2 l/m 8,9 km/h O-SO 4,42 h 1,5 UV-I 237 W/m 20,5 km/h
16.03.2011 3,5 C 95 % 1010,9 hPa 0,0 l/m 9,9 km/h NO 0,00 h 0,9 UV-I 92 W/m 23,0 km/h
17.03.2011 3,8 C 99 % 1010,0 hPa 0,4 l/m 5,0 km/h N-NW 0,00 h 0,5 UV-I 27 W/m 12,9 km/h
18.03.2011 3,4 C 97 % 1022,1 hPa 0,8 l/m 3,2 km/h NW 0,08 h 0,9 UV-I 96 W/m 7,3 km/h
19.03.2011 1,7 C 77 % 1032,8 hPa 0,0 l/m 0,9 km/h N-NO 8,00 h 1,7 UV-I 347 W/m 2,4 km/h
20.03.2011 1,6 C 81 % 1034,3 hPa 0,2 l/m 0,6 km/h S-SO 7,68 h 1,5 UV-I 307 W/m 3,2 km/h
21.03.2011 3,9 C 72 % 1035,4 hPa 0,0 l/m 1,2 km/h W-NW 9,58 h 1,7 UV-I 339 W/m 2,8 km/h
22.03.2011 6,4 C 79 % 1037,3 hPa 0,0 l/m 1,9 km/h W-NW 9,50 h 1,8 UV-I 348 W/m 4,4 km/h
23.03.2011 5,9 C 80 % 1038,6 hPa 0,0 l/m 1,2 km/h NW 7,50 h 2,0 UV-I 326 W/m 2,8 km/h
24.03.2011 6,5 C 83 % 1032,6 hPa 0,0 l/m 2,6 km/h S-SO 6,58 h 2,2 UV-I 319 W/m 7,2 km/h
25.03.2011 8,0 C 75 % 1017,4 hPa 0,0 l/m 4,6 km/h N-NW 5,33 h 2,1 UV-I 269 W/m 11,7 km/h
26.03.2011 3,5 C 84 % 1016,8 hPa 0,2 l/m 3,0 km/h N-NW 0,00 h 1,0 UV-I 105 W/m 7,3 km/h
27.03.2011 4,2 C 74 % 1013,9 hPa 0,0 l/m 0,9 km/h S-SO 9,00 h 2,3 UV-I 386 W/m 4,0 km/h
28.03.2011 3,4 C 75 % 1015,4 hPa 0,0 l/m 3,8 km/h N-NW 9,33 h 2,3 UV-I 372 W/m 7,6 km/h
29.03.2011 5,0 C 76 % 1015,4 hPa 0,0 l/m 1,3 km/h S 9,92 h 2,5 UV-I 381 W/m 5,2 km/h
30.03.2011 9,8 C 69 % 1014,6 hPa 0,0 l/m 5,6 km/h S 6,67 h 2,1 UV-I 301 W/m 10,5 km/h
31.03.2011 10,6 C 91 % 1014,3 hPa 5,0 l/m 12,2 km/h S-SW 0,42 h 1,4 UV-I 117 W/m 22,1 km/h
Min-Datum 05.03.11 07.03.11 13.03.11 11 Tage 01.03.11 - - - - 01.03.11
Min-Zeit 06:15 15:35 03:55 - 02:10 - - - - 02:25
Minimum -4,6 C 30 % 1004,4 hPa - 0,0 km/h - - - - 0,0 km/h
Max-Datum 30.03.11 15.03.11 23.03.11 31.03.11 10.03.11 - 29.03.11 29.03.11 20.03.11 09.03.11
Max-Zeit 14:05 07:00 09:50 16:05 10:55 - 18:20 13:10 13:10 11:40
Maximum 17,1 C 99 % 1040,4 hPa 5,0 l/m 28,3 km/h
S-SW
- 9,83 h 4,4 UV-I 810 W/m 49,9 km/h
S-SW
Durchschnitt 4,3 C 80 % 1022,5 hPa #9,2 l/m 5,0 km/h S #167:41 h 1,5 UV-I 240 W/m 11,2 km/h

Durchschnitt Minimum Temp.-0,0 C
Durchschnitt Maximum Temp.10,1 C